• MPC Preparation (Info)

  • MPEC 2014-X09 : 2014 WV365

    The following Minor Planet Electronic Circular may be linked-to from your own Web pages, but must not otherwise be redistributed electronically.

    A form allowing access to any MPEC is at the bottom of this page.


    Read MPEC 2014-X08 Read MPEC 2014-X10


    M.P.E.C. 2014-X09                                Issued 2014 Dec. 1, 23:40 UT
    
         The Minor Planet Electronic Circulars contain information on unusual
             minor planets and routine data on comets.  They are published
       on behalf of Commission 20 of the International Astronomical Union by the
              Minor Planet Center, Smithsonian Astrophysical Observatory,
                              Cambridge, MA 02138, U.S.A.
    
                 Prepared using the Tamkin Foundation Computer Network
    
                                  MPC@CFA.HARVARD.EDU
                URL https://www.minorplanetcenter.net/    ISSN 1523-6714
    
                                      2014 WV365
    
    Observations:
         K14Wa5V* C2014 11 27.40006 08 11 59.73 +07 58 22.4          18.3 VqEX009703
         K14Wa5V  C2014 11 27.41792 08 12 02.25 +07 57 37.7          18.3 VqEX009703
         K14Wa5V  C2014 11 27.42689 08 12 03.41 +07 57 16.5          18.4 VqEX009703
         K14Wa5V KC2014 11 27.46345008 12 08.02 +07 55 43.0          18.7 VuEX009H21
         K14Wa5V  C2014 11 27.46424708 12 08.51 +07 55 43.5          18.1 RtEX009H01
         K14Wa5V KC2014 11 27.46540708 12 08.30 +07 55 38.4          18.9 VuEX009H21
         K14Wa5V KC2014 11 27.46736508 12 08.56 +07 55 33.5          19.3 VuEX009H21
         K14Wa5V KC2014 11 27.46936908 12 08.85 +07 55 28.5          19.0 VuEX009H21
         K14Wa5V  C2014 11 27.47088108 12 09.42 +07 55 27.1          18.1 RtEX009H01
         K14Wa5V KC2014 11 27.47105208 12 09.08 +07 55 24.5          19.0 VuEX009H21
         K14Wa5V KC2014 11 27.47285408 12 09.32 +07 55 19.9          18.8 VuEX009H21
         K14Wa5V KC2014 11 27.47515508 12 09.65 +07 55 14.1          18.7 VuEX009H21
         K14Wa5V  C2014 11 27.47869108 12 10.50 +07 55 07.9          18.0 RtEX009H01
         K14Wa5V  C2014 11 27.48508808 12 11.38 +07 54 52.1          18.0 RtEX009H01
         K14Wa5V  C2014 11 27.48895 08 12 12.00 +07 54 43.6          18.6 VqEX009703
         K14Wa5V  C2014 11 27.49468 08 12 12.80 +07 54 29.4          18.3 VqEX009703
         K14Wa5V  C2014 11 27.50041 08 12 13.61 +07 54 15.3          18.4 VqEX009703
         K14Wa5V  C2014 11 27.50614 08 12 14.35 +07 54 01.2          18.5 VqEX009703
         K14Wa5V  C2014 11 27.71611 08 12 45.75 +07 45 23.9          18.7 VqEX009900
         K14Wa5V  C2014 11 27.72325 08 12 46.69 +07 45 06.3          18.5 VqEX009900
         K14Wa5V  C2014 11 27.73040 08 12 47.69 +07 44 48.6          19.0 VqEX009900
         K14Wa5V  C2014 11 27.77122 08 12 53.79 +07 43 03.3          18.7 RqEX009O75
         K14Wa5V  C2014 11 27.77272 08 12 53.99 +07 42 59.6          17.3 RqEX009O75
         K14Wa5V  C2014 11 27.77546 08 12 54.31 +07 42 53.1          18.8 RqEX009O75
         K14Wa5V  C2014 11 27.77894 08 12 54.78 +07 42 45.4          18.7 RqEX009O75
         K14Wa5V  C2014 11 27.78514 08 12 55.60 +07 42 30.4          18.5 RqEX009O75
         K14Wa5V KC2014 11 28.19418 08 13 53.86 +07 25 46.2          19.0 VqEX009958
         K14Wa5V KC2014 11 28.19741 08 13 54.27 +07 25 38.3          19.1 VqEX009958
         K14Wa5V KC2014 11 28.19983 08 13 54.59 +07 25 32.8          18.9 VqEX009958
         K14Wa5V KC2014 11 28.38559 08 14 21.64 +07 17 58.8          18.5 RqEX009H36
         K14Wa5V KC2014 11 28.39319 08 14 22.68 +07 17 40.3          18.7 RqEX009H36
         K14Wa5V KC2014 11 28.40154 08 14 23.80 +07 17 19.9          18.5 RqEX009H36
         K14Wa5V KC2014 11 28.40835 08 14 24.72 +07 17 03.2          18.5 RqEX009H36
         K14Wa5V KC2014 11 28.41594 08 14 25.72 +07 16 45.0          19.2 RqEX009H36
         K14Wa5V KC2014 11 28.45276 08 14 30.45 +07 15 15.7          18.7 RqEX009850
         K14Wa5V KC2014 11 28.47083 08 14 32.87 +07 14 30.9          19.1 RqEX009850
         K14Wa5V KC2014 11 28.47535 08 14 33.50 +07 14 19.4          19.0 RqEX009850
         K14Wa5V KC2014 11 28.47986 08 14 34.15 +07 14 07.7          18.7 RqEX009850
         K14Wa5V  C2014 11 28.52632 08 14 40.82 +07 12 16.3          19.1 VqEX009I52
         K14Wa5V  C2014 11 28.52673 08 14 40.87 +07 12 15.3          19.1 VqEX009I52
         K14Wa5V  C2014 11 28.52715 08 14 40.92 +07 12 14.3          19.1 VqEX009I52
         K14Wa5V  C2014 11 28.52756 08 14 40.99 +07 12 13.4          19.1 VqEX009I52
         K14Wa5V KC2014 11 28.54123 08 14 42.82 +07 11 39.9          18.6 RoEX009291
         K14Wa5V KC2014 11 28.54273 08 14 43.02 +07 11 36.4          18.5 RoEX009291
         K14Wa5V KC2014 11 28.54422 08 14 43.22 +07 11 32.6          18.6 RoEX009291
         K14Wa5V KC2014 11 29.37280 08 16 40.00 +06 37 45.2          18.7 RqEX009850
         K14Wa5V KC2014 11 29.38183 08 16 41.19 +06 37 23.1          18.4 RqEX009850
         K14Wa5V KC2014 11 29.39087 08 16 42.32 +06 37 00.4          18.5 RqEX009850
         K14Wa5V KC2014 11 29.39991 08 16 43.46 +06 36 39.0          18.6 RqEX009850
         K14Wa5V KC2014 11 29.40894 08 16 44.69 +06 36 16.6          18.5 RqEX009850
         K14Wa5V KC2014 11 29.41797 08 16 45.91 +06 35 54.8          18.7 RqEX009850
         K14Wa5V KC2014 11 29.45979708 16 51.78 +06 34 13.1          18.5 RqEX009448
         K14Wa5V KC2014 11 29.46339708 16 52.25 +06 34 04.6          18.6 RqEX009448
         K14Wa5V KC2014 11 29.46858508 16 52.90 +06 33 51.9          18.6 RqEX009448
         K14Wa5V KC2014 11 29.47717308 16 54.03 +06 33 30.7          18.6 RqEX009448
         K14Wa5V KC2014 11 30.35765408 18 54.41 +05 57 43.9          18.7 VuEX009H21
         K14Wa5V KC2014 11 30.36140008 18 54.88 +05 57 34.9          18.8 VuEX009H21
         K14Wa5V KC2014 11 30.36524608 18 55.37 +05 57 25.5          18.7 VuEX009H21
         K14Wa5V KC2014 12 01.09717 08 20 32.77 +05 27 48.7          18.7 VqEX009958
         K14Wa5V KC2014 12 01.10839 08 20 34.20 +05 27 21.8          19.0 VqEX009958
         K14Wa5V KC2014 12 01.11962 08 20 35.57 +05 26 54.5          19.0 VqEX009958
    
    Observer details:
    291 LPL/Spacewatch II.  Observer A. F. Tubbiolo.  1.8-m f/2.7 reflector + CCD.
    448 Desert Moon Observatory.  Observer B. L. Stevens.  0.3-m
        Schmidt-Cassegrain + CCD.
    703 Catalina Sky Survey.  Observer J. A. Johnson.  Measurers E. J. Christensen,
        A. R. Gibbs, A. D. Grauer, R. E. Hill, J. A. Johnson, R. A. Kowalski,
        S. M. Larson, R. G. Matheny, F. C. Shelly.  0.68-m Schmidt + CCD.
    850 Cordell-Lorenz Observatory, Sewanee.  Observer D. T. Durig.  0.3-m f/2.5
        Schmidt-Cassegrain + CCD.
    900 Moriyama.  Observer Y. Ikari.  0.26-m f/7.0 reflector + CCD.
    958 Observatoire de Dax.  Observers P. Dupouy, J. B. de Vanssay.  Measurer
        P. Dupouy.  0.43-m f/2.7 reflector + CCD.
    H01 Magdalena Ridge Observatory, Socorro.  Observer W. H. Ryan.  2.4-m f/8.9
        reflector + CCD.
    H21 Astronomical Research Observatory, Westfield.  Observers R. Holmes,
        T. Linder.  Measurers L. Buzzi, S. Foglia, T. Vorobjov, T. Linder.  0.61-m
        f/4.5 astrograph + CCD, 0.76-m f/3.0 astrograph + CCD, 0.81-m f/4.0
        astrograph + CCD.
    H36 Sandlot Observatory, Scranton.  Observer G. Hug.  0.56-m reflector + CCD.
    I52 Steward Observatory, Mt. Lemmon Station.  Observer A. R. Gibbs.  Measurers
        E. J. Christensen, A. R. Gibbs, A. D. Grauer, R. E. Hill, J. A. Johnson,
        R. A. Kowalski, S. M. Larson, F. C. Shelly.  1.0-m reflector + CCD.
    O75 ISON-Hureltogoot Observatory.  Observers T. Namkhai, S. Schmalz.  Measurer
        S. Schmalz.  0.4-m f/2.3 reflector + CCD.
    
    Orbital elements:
    2014 WV365                                               Earth MOID = 0.2437 AU
    Epoch 2014 Dec. 9.0 TT = JDT 2457000.5                  MPC
    M   2.27795              (2000.0)            P               Q
    n   0.21111110     Peri.  201.47636     +0.16551412     -0.97454437
    a   2.7933713      Node   239.28155     +0.92851378     +0.20566560
    e   0.5628759      Incl.   10.13129     +0.33236613     -0.08924642
    P   4.67           H   18.9           G   0.15           U   8
    Residuals in seconds of arc
    141127 703  0.4-  0.7+    141127 O75  0.4+  0.5-    141128 291  0.1-  0.0
    141127 703  0.4+  0.1-    141127 O75  0.3+  0.6-    141128 291  0.1-  0.2+
    141127 703  0.8-  0.7+    141127 O75  0.6-  0.4-    141128 291  0.1-  0.1+
    141127 H21  0.0   0.2-    141127 O75  0.8-  0.5+    141129 850  0.0   0.7+
    141127 H01  0.2-  0.1+    141127 O75  1.4-  0.7+    141129 850  0.2+  0.6+
    141127 H21  0.1+  0.0     141128 958  0.9+  0.8-    141129 850  0.5-  0.0
    141127 H21  0.1-  0.1-    141128 958  0.5+  0.7-    141129 850  1.1-  0.7+
    141127 H21  0.1+  0.2-    141128 958  0.3+  0.3-    141129 850  0.2-  0.3+
    141127 H01  0.3-  0.0     141128 H36  0.2+  0.3-    141129 850  0.5+  0.6+
    141127 H21  0.1+  0.0     141128 H36  0.4+  0.2-    141129 448  0.0   0.0
    141127 H21  0.1-  0.2-    141128 H36  0.4+  0.2-    141129 448  0.1+  0.3+
    141127 H21  0.1+  0.3-    141128 H36  0.4+  0.2-    141129 448  0.3-  0.2+
    141127 H01  0.2-  0.0     141128 H36  0.1+  0.2+    141129 448  0.0   0.0
    141127 H01  0.2-  0.0     141128 850  0.2+  0.1+    141130 H21  0.0   0.2+
    141127 703  0.0   0.4+    141128 850  0.1+  0.3-    141130 H21  0.1-  0.3+
    141127 703  0.2+  0.3+    141128 850  0.4+  0.7-    141130 H21  0.1-  0.2+
    141127 703  0.5+  0.3+    141128 850  1.0+  1.3-    141201 958  0.2-  0.6-
    141127 703  0.2-  0.3+    141128 I52  0.1+  0.0     141201 958  0.3+  0.3-
    141127 900  0.4+  0.2+    141128 I52  0.0   0.0     141201 958  0.1-  0.5-
    141127 900  0.2-  0.1+    141128 I52  0.1-  0.0
    141127 900  0.1+  0.1-    141128 I52  0.1+  0.1+
    
    Ephemeris:
    2014 WV365               a,e,i = 2.79, 0.56, 10                  q = 1.2211
    Date    TT    R. A. (2000) Decl.     Delta      r     Elong.  Phase     V
    2014 11 01    06 47 13.8 +24 25 09   0.4446  1.2613   117.5    44.3    19.3
    ...
    2014 11 16    07 40 02.0 +15 41 43   0.3937  1.2293   119.0    44.7    19.0
    ...
    2014 11 24    08 03 19.3 +10 18 14   0.3785  1.2220   120.1    44.3    18.9
    ...
    2014 11 30    08 18 05.7 +06 12 28   0.3720  1.2212   121.2    43.7    18.9
    2014 12 01    08 20 19.5 +05 32 01   0.3712  1.2215   121.4    43.5    18.9
    2014 12 02    08 22 29.2 +04 51 49   0.3706  1.2219   121.6    43.4    18.9
    ...
    2014 12 08    08 34 03.0 +00 57 59   0.3689  1.2264   123.2    42.3    18.8
    ...
    2014 12 16    08 45 38.9 -03 44 37   0.3714  1.2385   125.8    40.1    18.8
    ...
    2014 12 31    08 56 04.8 -10 22 30   0.3886  1.2789   132.6    34.5    18.8
    
    A. U. Tomatic                (C) Copyright 2014 MPC           M.P.E.C. 2014-X09
    

    Read MPEC 2014-X08 Read MPEC 2014-X10


    MPEC number:

    Enter an MPEC number in one of the following forms:

    • 1997-B01 (the full form)
    • J97B01 (the packed version of the full form)
    • B01 (the abbreviated form)